Home > Weather > Wilmington > Past weeks

Flag for USA Past Weather in Wilmington, North Carolina, USA — Yesterday and Last 2 Weeks

Now
85 °F

Sunny.


Feels Like: 92 °F
Forecast: 75 / 93 °F
Wind: 6 mph from South

Location: New Hanover International Airport

Current Time: Jul 24, 2016 at 8:27:02 PM

Latest Report: Jul 24, 2016 at 7:53 PM


Visibility: 10 mi

Pressure: 30.01 "Hg

Humidity: 70%

Dew Point: 74 °F

Location of WilmingtonLocation

Past Weather in Wilmington — Graph

°F

Wilmington Temperature Yesterday

Maximum temperature yesterday: 90 °F (at 12:53 PM)
Minimum temperature yesterday: 76 °F (at 1:53 AM)
Average temperature yesterday: 82 °F

High & Low Weather Summary for the Past Weeks

 TemperatureHumidityPressure
High96 °F (Jul 13, 4:53 PM)97% (Jul 11, 7:00 AM)30.25 "Hg (Jul 11, 7:00 AM)
Low70 °F (Jul 20, 5:53 AM)38% (Jul 13, 4:53 PM)29.90 "Hg (Jul 9, 6:53 PM)
Average81 °F77%30.08 "Hg
* Reported Jul 9 6:53 PM — Jul 24 6:53 PM, Wilmington, Weather by CustomWeather, © 2016

Note: Actual official high and low records may vary slightly from our data, if they occured in-between our weather recording intervals... More about our weather records

Advertising

Wilmington Weather History for the Previous 24 Hours

Scroll right to see more
 ConditionsComfort  
Time TempWeatherWind HumidityBarometerVisibility
6:53 PM
Sun, Jul 24
87 °FSunny.7 mph67%30.01 "Hg10 mi
5:53 PM90 °FPassing clouds.8 mph63%30.00 "Hg10 mi
4:53 PM91 °FPassing clouds.10 mph60%30.01 "Hg10 mi
3:53 PM91 °FScattered clouds.10 mph60%30.01 "Hg10 mi
2:53 PM90 °FPassing clouds.8 mph63%30.02 "Hg10 mi
1:53 PM89 °FBroken clouds.6 mph65%30.03 "Hg10 mi
12:53 PM90 °FBroken clouds.3 mph63%30.03 "Hg10 mi
11:53 AM90 °FPassing clouds.No wind63%30.04 "Hg10 mi
11:03 AM87 °FPartly sunny.7 mph69%30.04 "Hg10 mi
10:53 AM88 °FScattered clouds.6 mph67%30.04 "Hg10 mi
9:53 AM86 °FSunny.12 mph72%30.03 "Hg10 mi
8:53 AM84 °FSunny.10 mph77%30.03 "Hg10 mi
7:53 AM82 °FSunny.8 mph82%30.02 "Hg10 mi
6:53 AM78 °FClear.5 mph93%30.01 "Hg10 mi
5:53 AM77 °FClear.No wind94%30.01 "Hg10 mi
4:53 AM79 °FClear.No wind90%30.01 "Hg10 mi
3:53 AM78 °FPassing clouds.3 mph93%30.01 "Hg10 mi
2:53 AM77 °FPassing clouds.3 mph94%30.01 "Hg10 mi
1:53 AM77 °FClear.3 mph90%30.01 "Hg10 mi
12:53 AM76 °FClear.No wind94%30.01 "Hg10 mi
11:53 PM
Sat, Jul 23
77 °FClear.3 mph94%30.01 "Hg10 mi
10:53 PM79 °FClear.3 mph84%30.00 "Hg10 mi
9:53 PM81 °FClear.6 mph82%30.00 "Hg10 mi
8:53 PM82 °FSunny.7 mph77%29.99 "Hg10 mi
Weather by CustomWeather, © 2016

See weather overviewHow to use our weather pages